Time,TemperatureF,DewpointF,PressureIn,WindDirection,WindDirectionDegrees,WindSpeedMPH,WindSpeedGustMPH,Humidity,HourlyPrecipIn,Conditions,Clouds,dailyrainin,SoftwareType,DateUTC
2013-04-01 00:02:00,56.3,55.5,29.97,NNE,20,0.0,-999.0,97,0.00,,,0.00,WeatherSnoop3.0,2013-04-01 05:02:00,
2013-04-01 00:07:00,56.1,55.3,29.97,NNE,19,0.0,-999.0,97,0.00,,,0.00,WeatherSnoop3.0,2013-04-01 05:07:00,
2013-04-01 00:12:00,55.8,55.0,29.97,ENE,60,0.0,-999.0,97,0.00,,,0.00,WeatherSnoop3.0,2013-04-01 05:12:00,
2013-04-01 00:17:00,55.8,55.0,29.96,ENE,60,0.0,-999.0,97,0.00,,,0.00,WeatherSnoop3.0,2013-04-01 05:17:00,
2013-04-01 00:22:00,55.9,55.1,29.97,ENE,60,0.0,-999.0,97,0.00,,,0.00,WeatherSnoop3.0,2013-04-01 05:22:00,
2013-04-01 00:27:00,55.9,55.1,29.97,ENE,59,0.0,-999.0,97,0.00,,,0.00,WeatherSnoop3.0,2013-04-01 05:27:00,
2013-04-01 00:32:00,55.9,55.1,29.97,ENE,59,0.0,-999.0,97,0.00,,,0.00,WeatherSnoop3.0,2013-04-01 05:32:00,
2013-04-01 00:37:00,55.9,55.1,29.97,ENE,60,0.0,-999.0,97,0.00,,,0.00,WeatherSnoop3.0,2013-04-01 05:37:00,
2013-04-01 00:42:00,55.8,55.0,29.97,ENE,60,0.0,-999.0,97,0.00,,,0.00,WeatherSnoop3.0,2013-04-01 05:42:00,
2013-04-01 00:47:00,55.7,54.9,29.98,ENE,59,0.0,-999.0,97,0.00,,,0.00,WeatherSnoop3.0,2013-04-01 05:47:00,
2013-04-01 00:52:00,55.6,54.8,29.98,ENE,59,0.0,-999.0,97,0.00,,,0.00,WeatherSnoop3.0,2013-04-01 05:52:00,
2013-04-01 00:57:00,55.6,54.8,29.98,ENE,60,0.0,-999.0,97,0.00,,,0.00,WeatherSnoop3.0,2013-04-01 05:57:00,
2013-04-01 01:02:00,55.6,54.8,29.98,ENE,61,0.0,-999.0,97,0.00,,,0.00,WeatherSnoop3.0,2013-04-01 06:02:00,
2013-04-01 01:07:00,55.5,54.7,29.98,ENE,59,0.0,-999.0,97,0.00,,,0.00,WeatherSnoop3.0,2013-04-01 06:07:00,
2013-04-01 01:12:00,55.4,54.6,29.98,ENE,60,0.0,-999.0,97,0.00,,,0.00,WeatherSnoop3.0,2013-04-01 06:12:00,
2013-04-01 01:17:00,55.5,54.9,29.98,ENE,59,0.0,-999.0,98,0.00,,,0.00,WeatherSnoop3.0,2013-04-01 06:17:00,
2013-04-01 01:22:00,55.6,55.0,29.98,ENE,60,0.0,-999.0,98,0.00,,,0.00,WeatherSnoop3.0,2013-04-01 06:22:00,
2013-04-01 01:27:00,55.8,55.2,29.97,ENE,60,0.0,-999.0,98,0.00,,,0.00,WeatherSnoop3.0,2013-04-01 06:27:00,
2013-04-01 01:32:00,56.0,55.4,29.97,ENE,60,0.0,-999.0,98,0.00,,,0.00,WeatherSnoop3.0,2013-04-01 06:32:00,
2013-04-01 01:37:00,55.9,55.3,29.97,ENE,59,0.0,-999.0,98,0.00,,,0.00,WeatherSnoop3.0,2013-04-01 06:37:00,
2013-04-01 01:42:00,55.8,55.2,29.97,ENE,60,0.0,-999.0,98,0.00,,,0.00,WeatherSnoop3.0,2013-04-01 06:42:00,
2013-04-01 01:47:00,55.8,55.2,29.97,ENE,59,0.0,-999.0,98,0.00,,,0.00,WeatherSnoop3.0,2013-04-01 06:47:00,
2013-04-01 01:52:00,55.8,55.2,29.96,ENE,60,0.0,-999.0,98,0.00,,,0.00,WeatherSnoop3.0,2013-04-01 06:52:00,
2013-04-01 01:57:00,55.7,55.1,29.97,ENE,59,0.0,-999.0,98,0.00,,,0.00,WeatherSnoop3.0,2013-04-01 06:57:00,
2013-04-01 02:02:00,55.6,55.0,29.96,ENE,60,0.0,-999.0,98,0.00,,,0.00,WeatherSnoop3.0,2013-04-01 07:02:00,
2013-04-01 02:07:00,55.4,54.8,29.96,ENE,59,0.0,-999.0,98,0.00,,,0.00,WeatherSnoop3.0,2013-04-01 07:07:00,
2013-04-01 02:12:00,55.6,55.0,29.97,ENE,60,0.0,-999.0,98,0.00,,,0.00,WeatherSnoop3.0,2013-04-01 07:12:00,
2013-04-01 02:17:00,55.7,55.1,29.97,ENE,60,0.0,-999.0,98,0.00,,,0.00,WeatherSnoop3.0,2013-04-01 07:17:00,
2013-04-01 02:22:00,55.6,55.0,29.97,ENE,59,0.0,-999.0,98,0.00,,,0.00,WeatherSnoop3.0,2013-04-01 07:22:00,
2013-04-01 02:27:00,55.4,54.8,29.97,ENE,60,0.0,-999.0,98,0.00,,,0.00,WeatherSnoop3.0,2013-04-01 07:27:00,
2013-04-01 02:32:00,55.3,54.7,29.97,ENE,60,0.0,-999.0,98,0.00,,,0.00,WeatherSnoop3.0,2013-04-01 07:32:00,
2013-04-01 02:37:00,55.3,54.7,29.97,ENE,60,0.0,-999.0,98,0.00,,,0.00,WeatherSnoop3.0,2013-04-01 07:37:00,
2013-04-01 02:42:00,55.1,54.5,29.98,ENE,59,0.0,-999.0,98,0.00,,,0.00,WeatherSnoop3.0,2013-04-01 07:42:00,
2013-04-01 02:47:00,55.0,54.4,29.98,ENE,60,0.0,-999.0,98,0.00,,,0.00,WeatherSnoop3.0,2013-04-01 07:47:00,
2013-04-01 02:52:00,55.0,54.4,29.97,ENE,60,0.0,-999.0,98,0.00,,,0.00,WeatherSnoop3.0,2013-04-01 07:52:00,
2013-04-01 02:57:00,54.8,54.2,29.98,ENE,59,0.0,-999.0,98,0.00,,,0.00,WeatherSnoop3.0,2013-04-01 07:57:00,
2013-04-01 03:02:00,54.8,54.2,29.98,ENE,60,0.0,-999.0,98,0.00,,,0.00,WeatherSnoop3.0,2013-04-01 08:02:00,
2013-04-01 03:07:00,54.7,54.1,29.98,ENE,59,0.0,-999.0,98,0.00,,,0.00,WeatherSnoop3.0,2013-04-01 08:07:00,
2013-04-01 03:12:00,54.5,53.9,29.98,ENE,61,0.0,-999.0,98,0.00,,,0.00,WeatherSnoop3.0,2013-04-01 08:12:00,
2013-04-01 03:17:00,54.4,53.8,29.98,ENE,60,0.0,-999.0,98,0.00,,,0.00,WeatherSnoop3.0,2013-04-01 08:17:00,
2013-04-01 03:22:00,54.3,53.7,29.98,ENE,60,0.0,-999.0,98,0.00,,,0.00,WeatherSnoop3.0,2013-04-01 08:22:00,
2013-04-01 03:28:00,54.3,53.7,29.98,ENE,59,0.0,-999.0,98,0.00,,,0.00,WeatherSnoop3.0,2013-04-01 08:28:00,
2013-04-01 03:33:00,54.2,53.6,29.98,ENE,59,0.0,-999.0,98,0.00,,,0.00,WeatherSnoop3.0,2013-04-01 08:33:00,
2013-04-01 03:38:00,54.3,53.7,29.98,ENE,59,0.0,-999.0,98,0.00,,,0.00,WeatherSnoop3.0,2013-04-01 08:38:00,
2013-04-01 03:43:00,54.2,53.6,29.98,ENE,59,0.0,-999.0,98,0.00,,,0.00,WeatherSnoop3.0,2013-04-01 08:43:00,
2013-04-01 03:48:00,54.3,53.7,29.98,ENE,60,0.0,-999.0,98,0.00,,,0.00,WeatherSnoop3.0,2013-04-01 08:48:00,
2013-04-01 03:53:00,54.4,53.8,29.98,ENE,60,0.0,-999.0,98,0.00,,,0.00,WeatherSnoop3.0,2013-04-01 08:53:00,
2013-04-01 03:58:00,54.5,53.9,29.98,ENE,60,0.0,-999.0,98,0.00,,,0.00,WeatherSnoop3.0,2013-04-01 08:58:00,
2013-04-01 04:03:00,54.6,54.0,29.98,ENE,60,0.0,-999.0,98,0.00,,,0.00,WeatherSnoop3.0,2013-04-01 09:03:00,
2013-04-01 04:08:00,54.8,54.2,29.98,ENE,60,0.0,-999.0,98,0.00,,,0.00,WeatherSnoop3.0,2013-04-01 09:08:00,
2013-04-01 04:13:00,55.0,54.4,29.98,ENE,60,0.0,-999.0,98,0.00,,,0.00,WeatherSnoop3.0,2013-04-01 09:13:00,
2013-04-01 04:18:00,55.2,54.6,29.98,ENE,59,0.0,-999.0,98,0.00,,,0.00,WeatherSnoop3.0,2013-04-01 09:18:00,
2013-04-01 04:23:00,56.0,55.4,29.98,ENE,60,0.0,-999.0,98,0.00,,,0.00,WeatherSnoop3.0,2013-04-01 09:23:00,
2013-04-01 04:28:00,56.1,55.5,29.98,ENE,59,0.0,-999.0,98,0.00,,,0.00,WeatherSnoop3.0,2013-04-01 09:28:00,
2013-04-01 04:33:00,56.0,55.4,29.98,ENE,60,0.0,-999.0,98,0.00,,,0.00,WeatherSnoop3.0,2013-04-01 09:33:00,
2013-04-01 04:38:00,56.0,55.4,29.99,ENE,59,0.0,-999.0,98,0.00,,,0.00,WeatherSnoop3.0,2013-04-01 09:38:00,
2013-04-01 04:43:00,56.0,55.4,29.99,ENE,60,0.0,-999.0,98,0.00,,,0.00,WeatherSnoop3.0,2013-04-01 09:43:00,
2013-04-01 04:48:00,56.0,55.4,29.99,ENE,60,0.0,-999.0,98,0.00,,,0.00,WeatherSnoop3.0,2013-04-01 09:48:00,
2013-04-01 04:53:00,56.0,55.4,29.99,ENE,59,0.0,-999.0,98,0.00,,,0.00,WeatherSnoop3.0,2013-04-01 09:53:00,
2013-04-01 04:58:00,56.0,55.4,30.00,ENE,60,0.0,-999.0,98,0.00,,,0.00,WeatherSnoop3.0,2013-04-01 09:58:00,
2013-04-01 05:03:00,55.9,55.3,30.00,ENE,59,0.0,-999.0,98,0.00,,,0.00,WeatherSnoop3.0,2013-04-01 10:03:00,
2013-04-01 05:08:00,55.9,55.3,30.00,ENE,59,0.0,-999.0,98,0.00,,,0.00,WeatherSnoop3.0,2013-04-01 10:08:00,
2013-04-01 05:13:00,56.0,55.4,30.01,ENE,60,0.0,-999.0,98,0.00,,,0.00,WeatherSnoop3.0,2013-04-01 10:13:00,
2013-04-01 05:18:00,56.3,55.7,30.01,ENE,60,0.0,-999.0,98,0.00,,,0.00,WeatherSnoop3.0,2013-04-01 10:18:00,
2013-04-01 05:23:00,56.5,55.9,30.01,ENE,59,0.0,-999.0,98,0.00,,,0.00,WeatherSnoop3.0,2013-04-01 10:23:00,
2013-04-01 05:28:00,56.5,55.9,30.01,ENE,59,0.0,-999.0,98,0.00,,,0.00,WeatherSnoop3.0,2013-04-01 10:28:00,
2013-04-01 05:33:00,56.6,56.0,30.01,ENE,59,0.0,-999.0,98,0.00,,,0.00,WeatherSnoop3.0,2013-04-01 10:33:00,
2013-04-01 05:38:00,56.7,56.1,30.02,ENE,59,0.0,-999.0,98,0.00,,,0.00,WeatherSnoop3.0,2013-04-01 10:38:00,
2013-04-01 05:43:00,56.7,56.1,30.02,ENE,60,0.0,-999.0,98,0.00,,,0.00,WeatherSnoop3.0,2013-04-01 10:43:00,
2013-04-01 05:48:00,56.7,56.1,30.02,ENE,60,0.0,-999.0,98,0.00,,,0.00,WeatherSnoop3.0,2013-04-01 10:48:00,
2013-04-01 05:53:00,56.7,56.1,30.02,ENE,59,0.0,-999.0,98,0.00,,,0.00,WeatherSnoop3.0,2013-04-01 10:53:00,
2013-04-01 05:58:00,56.8,56.2,30.03,ENE,60,0.0,-999.0,98,0.00,,,0.00,WeatherSnoop3.0,2013-04-01 10:58:00,
2013-04-01 06:03:00,56.8,56.2,30.03,ENE,59,0.0,-999.0,98,0.00,,,0.00,WeatherSnoop3.0,2013-04-01 11:03:00,
2013-04-01 06:08:00,56.8,56.2,30.03,ENE,59,0.0,-999.0,98,0.00,,,0.00,WeatherSnoop3.0,2013-04-01 11:08:00,
2013-04-01 06:13:00,56.9,56.3,30.03,ENE,60,0.0,-999.0,98,0.00,,,0.00,WeatherSnoop3.0,2013-04-01 11:13:00,
2013-04-01 06:18:00,56.9,56.3,30.04,ENE,59,0.0,-999.0,98,0.00,,,0.00,WeatherSnoop3.0,2013-04-01 11:18:00,
2013-04-01 06:23:00,56.9,56.3,30.04,ENE,59,0.0,-999.0,98,0.00,,,0.00,WeatherSnoop3.0,2013-04-01 11:23:00,
2013-04-01 06:28:00,56.9,56.3,30.05,ENE,60,0.0,-999.0,98,0.00,,,0.00,WeatherSnoop3.0,2013-04-01 11:28:00,
2013-04-01 06:33:00,57.0,56.4,30.05,ENE,60,0.0,-999.0,98,0.00,,,0.00,WeatherSnoop3.0,2013-04-01 11:33:00,
2013-04-01 06:38:00,57.1,56.5,30.05,ENE,59,0.0,-999.0,98,0.00,,,0.00,WeatherSnoop3.0,2013-04-01 11:38:00,
2013-04-01 06:43:00,57.1,56.5,30.06,ENE,60,0.0,-999.0,98,0.00,,,0.00,WeatherSnoop3.0,2013-04-01 11:43:00,
2013-04-01 06:48:00,57.1,56.5,30.06,ENE,60,0.0,-999.0,98,0.00,,,0.00,WeatherSnoop3.0,2013-04-01 11:48:00,
2013-04-01 06:53:00,57.1,56.5,30.07,ENE,59,0.0,-999.0,98,0.00,,,0.00,WeatherSnoop3.0,2013-04-01 11:53:00,
2013-04-01 06:58:00,57.1,56.5,30.07,ENE,59,0.0,-999.0,98,0.00,,,0.00,WeatherSnoop3.0,2013-04-01 11:58:00,
2013-04-01 07:03:00,57.2,56.6,30.07,ENE,61,0.0,-999.0,98,0.00,,,0.00,WeatherSnoop3.0,2013-04-01 12:03:00,
2013-04-01 07:08:00,57.3,56.7,30.07,ENE,60,0.0,-999.0,98,0.00,,,0.00,WeatherSnoop3.0,2013-04-01 12:08:00,
2013-04-01 07:13:00,57.3,56.7,30.07,ENE,59,0.0,-999.0,98,0.00,,,0.00,WeatherSnoop3.0,2013-04-01 12:13:00,
2013-04-01 07:18:00,57.4,56.8,30.08,ENE,60,0.0,-999.0,98,0.00,,,0.00,WeatherSnoop3.0,2013-04-01 12:18:00,
2013-04-01 07:23:00,57.5,56.9,30.08,ENE,60,0.0,-999.0,98,0.00,,,0.00,WeatherSnoop3.0,2013-04-01 12:23:00,
2013-04-01 07:28:00,57.6,57.0,30.08,ENE,59,0.0,-999.0,98,0.00,,,0.00,WeatherSnoop3.0,2013-04-01 12:28:00,
2013-04-01 07:33:00,57.7,57.1,30.08,ENE,59,0.0,-999.0,98,0.00,,,0.00,WeatherSnoop3.0,2013-04-01 12:33:00,
2013-04-01 07:38:00,57.9,57.3,30.08,ENE,59,0.0,-999.0,98,0.00,,,0.00,WeatherSnoop3.0,2013-04-01 12:38:00,
2013-04-01 07:43:00,58.1,57.5,30.08,ENE,59,0.0,-999.0,98,0.00,,,0.00,WeatherSnoop3.0,2013-04-01 12:43:00,
2013-04-01 07:48:00,58.2,57.6,30.08,ENE,59,0.0,-999.0,98,0.00,,,0.00,WeatherSnoop3.0,2013-04-01 12:48:00,
2013-04-01 07:53:00,58.4,57.8,30.09,ENE,59,0.0,-999.0,98,0.00,,,0.00,WeatherSnoop3.0,2013-04-01 12:53:00,
2013-04-01 07:58:00,58.5,57.9,30.09,ENE,59,0.0,-999.0,98,0.00,,,0.00,WeatherSnoop3.0,2013-04-01 12:58:00,
2013-04-01 08:03:00,58.6,58.3,30.09,ENE,60,0.0,-999.0,99,0.00,,,0.00,WeatherSnoop3.0,2013-04-01 13:03:00,
2013-04-01 08:08:00,58.7,58.4,30.09,ENE,59,0.0,-999.0,99,0.00,,,0.00,WeatherSnoop3.0,2013-04-01 13:08:00,
2013-04-01 08:13:00,58.9,58.3,30.09,ENE,60,0.0,-999.0,98,0.00,,,0.00,WeatherSnoop3.0,2013-04-01 13:13:00,
2013-04-01 08:18:00,59.1,58.5,30.09,ENE,59,0.0,-999.0,98,0.00,,,0.00,WeatherSnoop3.0,2013-04-01 13:18:00,
2013-04-01 08:23:00,59.1,58.5,30.10,ENE,60,0.0,-999.0,98,0.00,,,0.00,WeatherSnoop3.0,2013-04-01 13:23:00,
2013-04-01 08:28:00,59.3,59.0,30.09,ENE,60,0.0,-999.0,99,0.00,,,0.00,WeatherSnoop3.0,2013-04-01 13:28:00,
2013-04-01 08:33:00,59.5,58.9,30.09,ENE,59,0.0,-999.0,98,0.00,,,0.00,WeatherSnoop3.0,2013-04-01 13:33:00,
2013-04-01 08:38:00,59.6,59.0,30.09,ENE,57,0.0,-999.0,98,0.00,,,0.00,WeatherSnoop3.0,2013-04-01 13:38:00,
2013-04-01 08:43:00,59.7,59.1,30.09,ENE,57,0.0,-999.0,98,0.00,,,0.00,WeatherSnoop3.0,2013-04-01 13:43:00,
2013-04-01 08:48:00,59.9,59.6,30.09,ENE,57,0.0,-999.0,99,0.00,,,0.00,WeatherSnoop3.0,2013-04-01 13:48:00,
2013-04-01 08:53:00,59.9,59.6,30.10,ENE,57,0.0,-999.0,99,0.00,,,0.00,WeatherSnoop3.0,2013-04-01 13:53:00,
2013-04-01 08:58:00,59.8,59.5,30.10,ENE,59,0.0,-999.0,99,0.00,,,0.00,WeatherSnoop3.0,2013-04-01 13:58:00,
2013-04-01 09:03:00,59.8,59.5,30.10,NE,36,0.0,-999.0,99,0.00,,,0.00,WeatherSnoop3.0,2013-04-01 14:03:00,
2013-04-01 09:08:00,59.9,59.3,30.10,NE,49,0.0,-999.0,98,0.00,,,0.00,WeatherSnoop3.0,2013-04-01 14:08:00,
2013-04-01 09:13:00,59.9,59.3,30.10,NNE,30,0.0,-999.0,98,0.00,,,0.00,WeatherSnoop3.0,2013-04-01 14:13:00,
2013-04-01 09:18:00,59.8,59.2,30.10,NNE,18,0.0,-999.0,98,0.00,,,0.00,WeatherSnoop3.0,2013-04-01 14:18:00,
2013-04-01 09:23:00,59.7,59.1,30.10,NNE,24,0.0,-999.0,98,0.00,,,0.00,WeatherSnoop3.0,2013-04-01 14:23:00,
2013-04-01 09:28:00,59.9,59.3,30.10,NNE,26,0.0,-999.0,98,0.00,,,0.00,WeatherSnoop3.0,2013-04-01 14:28:00,
2013-04-01 09:33:00,60.0,59.4,30.10,NNE,20,0.0,-999.0,98,0.00,,,0.00,WeatherSnoop3.0,2013-04-01 14:33:00,
2013-04-01 09:38:00,60.2,59.6,30.10,NE,35,0.0,-999.0,98,0.00,,,0.00,WeatherSnoop3.0,2013-04-01 14:38:00,
2013-04-01 09:43:00,60.3,59.7,30.10,NNE,28,0.0,-999.0,98,0.00,,,0.00,WeatherSnoop3.0,2013-04-01 14:43:00,
2013-04-01 09:48:00,60.5,59.9,30.10,NNE,28,0.0,-999.0,98,0.00,,,0.00,WeatherSnoop3.0,2013-04-01 14:48:00,
2013-04-01 09:53:00,60.7,60.1,30.10,NNE,19,0.0,-999.0,98,0.00,,,0.00,WeatherSnoop3.0,2013-04-01 14:53:00,
2013-04-01 09:58:00,60.5,59.9,30.11,North,355,0.0,-999.0,98,0.00,,,0.00,WeatherSnoop3.0,2013-04-01 14:58:00,
2013-04-01 10:03:00,60.6,60.0,30.11,North,355,0.0,-999.0,98,0.00,,,0.00,WeatherSnoop3.0,2013-04-01 15:03:00,
2013-04-01 10:08:00,60.4,59.8,30.10,North,360,0.0,-999.0,98,0.00,,,0.00,WeatherSnoop3.0,2013-04-01 15:08:00,
2013-04-01 10:13:00,60.6,60.0,30.11,NNW,348,0.0,-999.0,98,0.00,,,0.00,WeatherSnoop3.0,2013-04-01 15:13:00,
2013-04-01 10:18:00,60.7,59.8,30.10,NNW,348,0.0,-999.0,97,0.00,,,0.00,WeatherSnoop3.0,2013-04-01 15:18:00,
2013-04-01 10:23:00,61.3,60.4,30.10,NNW,347,0.0,-999.0,97,0.00,,,0.00,WeatherSnoop3.0,2013-04-01 15:23:00,
2013-04-01 10:28:00,61.4,60.5,30.10,NNW,344,0.0,-999.0,97,0.00,,,0.00,WeatherSnoop3.0,2013-04-01 15:28:00,
2013-04-01 10:33:00,61.7,60.8,30.10,North,360,0.0,-999.0,97,0.00,,,0.00,WeatherSnoop3.0,2013-04-01 15:33:00,
2013-04-01 10:38:00,61.9,61.0,30.11,NW,322,0.0,-999.0,97,0.00,,,0.00,WeatherSnoop3.0,2013-04-01 15:38:00,
2013-04-01 10:43:00,62.1,60.9,30.11,NNW,327,0.0,-999.0,96,0.00,,,0.00,WeatherSnoop3.0,2013-04-01 15:43:00,
2013-04-01 10:48:00,62.4,61.2,30.11,North,355,0.0,-999.0,96,0.00,,,0.00,WeatherSnoop3.0,2013-04-01 15:48:00,
2013-04-01 10:53:00,62.8,61.3,30.10,NNW,344,0.0,-999.0,95,0.00,,,0.00,WeatherSnoop3.0,2013-04-01 15:53:00,
2013-04-01 10:58:00,63.4,61.9,30.11,NNW,334,0.0,-999.0,95,0.00,,,0.00,WeatherSnoop3.0,2013-04-01 15:58:00,
2013-04-01 11:03:00,63.9,62.1,30.11,NNW,336,0.0,-999.0,94,0.00,,,0.00,WeatherSnoop3.0,2013-04-01 16:03:00,
2013-04-01 11:08:00,64.3,62.2,30.10,NNE,25,0.0,-999.0,93,0.00,,,0.00,WeatherSnoop3.0,2013-04-01 16:08:00,
2013-04-01 11:13:00,65.3,63.2,30.11,NNE,16,0.0,-999.0,93,0.00,,,0.00,WeatherSnoop3.0,2013-04-01 16:13:00,
2013-04-01 11:18:00,65.7,63.0,30.11,NNE,26,0.0,-999.0,91,0.00,,,0.00,WeatherSnoop3.0,2013-04-01 16:18:00,
2013-04-01 11:23:00,66.4,63.7,30.10,ENE,57,0.0,-999.0,91,0.00,,,0.00,WeatherSnoop3.0,2013-04-01 16:23:00,
2013-04-01 11:28:00,66.7,63.0,30.10,NW,323,0.0,-999.0,88,0.00,,,0.00,WeatherSnoop3.0,2013-04-01 16:28:00,
2013-04-01 11:33:00,66.9,62.9,30.10,NNW,336,0.0,-999.0,87,0.00,,,0.00,WeatherSnoop3.0,2013-04-01 16:33:00,
2013-04-01 11:38:00,67.3,63.3,30.10,WNW,302,0.0,-999.0,87,0.00,,,0.00,WeatherSnoop3.0,2013-04-01 16:38:00,
2013-04-01 11:43:00,67.8,63.1,30.10,NNW,336,0.0,-999.0,85,0.00,,,0.00,WeatherSnoop3.0,2013-04-01 16:43:00,
2013-04-01 11:48:00,67.8,62.8,30.10,NNE,20,0.0,-999.0,84,0.00,,,0.00,WeatherSnoop3.0,2013-04-01 16:48:00,
2013-04-01 11:53:00,68.1,62.7,30.10,North,355,0.0,-999.0,83,0.00,,,0.00,WeatherSnoop3.0,2013-04-01 16:53:00,
2013-04-01 11:58:00,68.3,62.2,30.10,North,360,0.0,-999.0,81,0.00,,,0.00,WeatherSnoop3.0,2013-04-01 16:58:00,
2013-04-01 12:03:00,68.6,62.5,30.10,North,360,0.0,-999.0,81,0.00,,,0.00,WeatherSnoop3.0,2013-04-01 17:03:00,
2013-04-01 12:08:00,69.0,63.3,30.10,North,355,0.0,-999.0,82,0.00,,,0.00,WeatherSnoop3.0,2013-04-01 17:08:00,
2013-04-01 12:13:00,69.9,63.4,30.10,NNE,33,0.0,-999.0,80,0.00,,,0.00,WeatherSnoop3.0,2013-04-01 17:13:00,
2013-04-01 12:18:00,70.2,62.6,30.10,NW,318,0.0,-999.0,77,0.00,,,0.00,WeatherSnoop3.0,2013-04-01 17:18:00,
2013-04-01 12:23:00,70.5,63.7,30.10,NNE,21,0.0,-999.0,79,0.00,,,0.00,WeatherSnoop3.0,2013-04-01 17:23:00,
2013-04-01 12:28:00,70.9,62.9,30.10,NE,46,0.0,-999.0,76,0.00,,,0.00,WeatherSnoop3.0,2013-04-01 17:28:00,
2013-04-01 12:33:00,71.4,61.9,30.10,NW,326,0.0,-999.0,72,0.00,,,0.00,WeatherSnoop3.0,2013-04-01 17:33:00,
2013-04-01 12:38:00,71.4,61.9,30.09,NW,311,0.0,-999.0,72,0.00,,,0.00,WeatherSnoop3.0,2013-04-01 17:38:00,
2013-04-01 12:43:00,71.3,62.2,30.09,NNE,12,0.0,-999.0,73,0.00,,,0.00,WeatherSnoop3.0,2013-04-01 17:43:00,
2013-04-01 12:48:00,71.5,62.8,30.09,NNE,33,0.0,-999.0,74,0.00,,,0.00,WeatherSnoop3.0,2013-04-01 17:48:00,
2013-04-01 12:53:00,71.9,62.8,30.09,NNE,15,0.0,-999.0,73,0.00,,,0.00,WeatherSnoop3.0,2013-04-01 17:53:00,
2013-04-01 12:58:00,72.2,61.9,30.08,NNW,333,0.0,-999.0,70,0.00,,,0.00,WeatherSnoop3.0,2013-04-01 17:58:00,
2013-04-01 13:03:00,72.2,61.9,30.08,North,5,0.0,-999.0,70,0.00,,,0.00,WeatherSnoop3.0,2013-04-01 18:03:00,
2013-04-01 13:08:00,72.4,63.6,30.08,NNE,23,0.0,-999.0,74,0.00,,,0.00,WeatherSnoop3.0,2013-04-01 18:08:00,
2013-04-01 13:13:00,72.6,61.4,30.08,NNE,22,0.0,-999.0,68,0.00,,,0.00,WeatherSnoop3.0,2013-04-01 18:13:00,
2013-04-01 13:18:00,73.3,62.1,30.08,NNW,348,0.0,-999.0,68,0.00,,,0.00,WeatherSnoop3.0,2013-04-01 18:18:00,
2013-04-01 13:23:00,73.4,60.0,30.07,North,9,0.0,-999.0,63,0.00,,,0.00,WeatherSnoop3.0,2013-04-01 18:23:00,
2013-04-01 13:28:00,73.7,61.2,30.07,NNE,20,0.0,-999.0,65,0.00,,,0.00,WeatherSnoop3.0,2013-04-01 18:28:00,
2013-04-01 13:33:00,74.1,62.8,30.07,NE,47,0.0,-999.0,68,0.00,,,0.01,WeatherSnoop3.0,2013-04-01 18:33:00,
2013-04-01 13:38:00,75.1,63.8,30.07,NE,46,0.0,-999.0,68,0.00,,,0.01,WeatherSnoop3.0,2013-04-01 18:38:00,
2013-04-01 13:43:00,74.7,59.9,30.07,NW,317,0.0,-999.0,60,0.00,,,0.01,WeatherSnoop3.0,2013-04-01 18:43:00,
2013-04-01 13:48:00,74.3,61.3,30.06,North,360,0.0,-999.0,64,0.00,,,0.01,WeatherSnoop3.0,2013-04-01 18:48:00,
2013-04-01 13:53:00,74.9,62.3,30.06,NE,46,0.0,-999.0,65,0.00,,,0.01,WeatherSnoop3.0,2013-04-01 18:53:00,
2013-04-01 13:58:00,75.2,62.6,30.06,WNW,293,0.0,-999.0,65,0.00,,,0.01,WeatherSnoop3.0,2013-04-01 18:58:00,
2013-04-01 14:03:00,75.7,61.3,30.06,West,259,0.0,-999.0,61,0.00,,,0.01,WeatherSnoop3.0,2013-04-01 19:03:00,
2013-04-01 14:08:00,76.4,62.9,30.06,NE,55,0.0,-999.0,63,0.00,,,0.01,WeatherSnoop3.0,2013-04-01 19:08:00,
2013-04-01 14:13:00,76.4,60.0,30.05,North,355,0.0,-999.0,57,0.00,,,0.01,WeatherSnoop3.0,2013-04-01 19:13:00,
2013-04-01 14:18:00,76.2,60.8,30.05,North,355,0.0,-999.0,59,0.00,,,0.01,WeatherSnoop3.0,2013-04-01 19:18:00,
2013-04-01 14:23:00,76.2,61.3,30.05,NE,41,0.0,-999.0,60,0.00,,,0.01,WeatherSnoop3.0,2013-04-01 19:23:00,
2013-04-01 14:28:00,77.0,61.1,30.05,NW,321,0.0,-999.0,58,0.00,,,0.01,WeatherSnoop3.0,2013-04-01 19:28:00,
2013-04-01 14:33:00,76.5,60.6,30.05,NNE,17,0.0,-999.0,58,0.00,,,0.01,WeatherSnoop3.0,2013-04-01 19:33:00,
2013-04-01 14:38:00,76.9,62.9,30.05,NE,36,0.0,-999.0,62,0.00,,,0.01,WeatherSnoop3.0,2013-04-01 19:38:00,
2013-04-01 14:47:00,76.7,62.2,30.04,NNE,15,0.0,-999.0,61,0.00,,,0.01,WeatherSnoop3.0,2013-04-01 19:47:00,
2013-04-01 14:52:00,76.6,60.2,30.04,North,360,0.0,-999.0,57,0.00,,,0.01,WeatherSnoop3.0,2013-04-01 19:52:00,
2013-04-01 14:57:00,77.1,62.6,30.03,NNE,27,0.0,-999.0,61,0.00,,,0.01,WeatherSnoop3.0,2013-04-01 19:57:00,
2013-04-01 15:02:00,77.1,58.6,30.03,NNW,346,0.0,-999.0,53,0.00,,,0.01,WeatherSnoop3.0,2013-04-01 20:02:00,
2013-04-01 15:07:00,76.9,59.5,30.03,NW,324,0.0,-999.0,55,0.00,,,0.01,WeatherSnoop3.0,2013-04-01 20:07:00,
2013-04-01 15:12:00,76.6,59.2,30.03,WNW,301,0.0,-999.0,55,0.00,,,0.01,WeatherSnoop3.0,2013-04-01 20:12:00,
2013-04-01 15:17:00,77.1,59.7,30.03,NNE,24,0.0,-999.0,55,0.00,,,0.01,WeatherSnoop3.0,2013-04-01 20:17:00,
2013-04-01 15:22:00,77.7,62.2,30.03,NNE,26,0.0,-999.0,59,0.00,,,0.01,WeatherSnoop3.0,2013-04-01 20:22:00,
2013-04-01 15:27:00,78.3,59.2,30.03,ENE,76,0.0,-999.0,52,0.00,,,0.01,WeatherSnoop3.0,2013-04-01 20:27:00,
2013-04-01 15:36:00,79.2,61.6,30.02,NNE,25,0.0,-999.0,55,0.00,,,0.01,WeatherSnoop3.0,2013-04-01 20:36:00,
2013-04-01 15:41:00,78.7,59.6,30.02,NW,308,0.0,-999.0,52,0.00,,,0.01,WeatherSnoop3.0,2013-04-01 20:41:00,
2013-04-01 15:46:00,78.2,59.1,30.02,NNW,337,0.0,-999.0,52,0.00,,,0.01,WeatherSnoop3.0,2013-04-01 20:46:00,
2013-04-01 15:51:00,78.5,61.0,30.02,ENE,63,0.0,-999.0,55,0.00,,,0.01,WeatherSnoop3.0,2013-04-01 20:51:00,
2013-04-01 15:56:00,79.0,59.9,30.02,NNE,20,0.0,-999.0,52,0.00,,,0.01,WeatherSnoop3.0,2013-04-01 20:56:00,
2013-04-01 16:01:00,79.0,59.3,30.01,North,5,0.0,-999.0,51,0.00,,,0.01,WeatherSnoop3.0,2013-04-01 21:01:00,
2013-04-01 16:06:00,79.0,60.4,30.01,NW,323,0.0,-999.0,53,0.00,,,0.01,WeatherSnoop3.0,2013-04-01 21:06:00,
2013-04-01 16:11:00,78.7,59.6,30.01,NW,325,0.0,-999.0,52,0.00,,,0.01,WeatherSnoop3.0,2013-04-01 21:11:00,
2013-04-01 16:16:00,78.6,58.4,30.01,NW,321,0.0,-999.0,50,0.00,,,0.01,WeatherSnoop3.0,2013-04-01 21:16:00,
2013-04-01 16:21:00,77.7,58.7,30.01,North,355,0.0,-999.0,52,0.00,,,0.01,WeatherSnoop3.0,2013-04-01 21:21:00,
2013-04-01 16:26:00,77.9,57.2,30.01,North,360,0.0,-999.0,49,0.00,,,0.01,WeatherSnoop3.0,2013-04-01 21:26:00,
2013-04-01 16:31:00,78.2,61.2,30.00,NE,55,0.0,-999.0,56,0.00,,,0.01,WeatherSnoop3.0,2013-04-01 21:31:00,
2013-04-01 16:36:00,78.5,59.4,30.00,NNE,16,0.0,-999.0,52,0.00,,,0.01,WeatherSnoop3.0,2013-04-01 21:36:00,
2013-04-01 16:41:00,78.5,58.8,30.00,North,360,0.0,-999.0,51,0.00,,,0.01,WeatherSnoop3.0,2013-04-01 21:41:00,
2013-04-01 16:46:00,77.9,58.8,30.00,North,351,0.0,-999.0,52,0.00,,,0.01,WeatherSnoop3.0,2013-04-01 21:46:00,
2013-04-01 16:51:00,78.0,56.7,30.00,North,360,0.0,-999.0,48,0.00,,,0.01,WeatherSnoop3.0,2013-04-01 21:51:00,
2013-04-01 16:56:00,78.3,58.1,30.00,NW,306,0.0,-999.0,50,0.00,,,0.01,WeatherSnoop3.0,2013-04-01 21:56:00,
2013-04-01 17:01:00,78.4,59.3,30.00,NNW,344,0.0,-999.0,52,0.00,,,0.01,WeatherSnoop3.0,2013-04-01 22:01:00,
2013-04-01 17:06:00,78.3,55.8,30.00,NNE,12,0.0,-999.0,46,0.00,,,0.01,WeatherSnoop3.0,2013-04-01 22:06:00,
2013-04-01 17:11:00,78.1,57.4,30.00,NNW,340,0.0,-999.0,49,0.00,,,0.01,WeatherSnoop3.0,2013-04-01 22:11:00,
2013-04-01 17:16:00,78.5,56.0,30.00,NNW,343,0.0,-999.0,46,0.00,,,0.01,WeatherSnoop3.0,2013-04-01 22:16:00,
2013-04-01 17:21:00,78.3,57.0,30.00,NNE,31,0.0,-999.0,48,0.00,,,0.01,WeatherSnoop3.0,2013-04-01 22:21:00,
2013-04-01 17:26:00,78.6,57.2,30.00,North,360,0.0,-999.0,48,0.00,,,0.01,WeatherSnoop3.0,2013-04-01 22:26:00,
2013-04-01 17:32:00,78.2,56.9,30.00,NNW,329,0.0,-999.0,48,0.00,,,0.01,WeatherSnoop3.0,2013-04-01 22:32:00,
2013-04-01 17:37:00,77.5,58.5,29.99,North,9,0.0,-999.0,52,0.00,,,0.01,WeatherSnoop3.0,2013-04-01 22:37:00,
2013-04-01 17:42:00,77.8,57.7,30.00,NNW,344,0.0,-999.0,50,0.00,,,0.01,WeatherSnoop3.0,2013-04-01 22:42:00,
2013-04-01 17:47:00,78.2,59.1,29.99,NNW,348,0.0,-999.0,52,0.00,,,0.01,WeatherSnoop3.0,2013-04-01 22:47:00,
2013-04-01 17:52:00,78.1,57.4,29.99,NNW,335,0.0,-999.0,49,0.00,,,0.01,WeatherSnoop3.0,2013-04-01 22:52:00,
2013-04-01 17:57:00,78.1,59.0,29.99,NNE,23,0.0,-999.0,52,0.00,,,0.01,WeatherSnoop3.0,2013-04-01 22:57:00,
2013-04-01 18:02:00,78.1,59.0,29.99,NNE,29,0.0,-999.0,52,0.00,,,0.01,WeatherSnoop3.0,2013-04-01 23:02:00,
2013-04-01 18:07:00,78.0,58.9,29.99,NE,34,0.0,-999.0,52,0.00,,,0.01,WeatherSnoop3.0,2013-04-01 23:07:00,
2013-04-01 18:12:00,77.7,59.7,29.99,NNE,21,0.0,-999.0,54,0.00,,,0.01,WeatherSnoop3.0,2013-04-01 23:12:00,
2013-04-01 18:17:00,77.3,59.3,29.99,NNE,15,0.0,-999.0,54,0.00,,,0.01,WeatherSnoop3.0,2013-04-01 23:17:00,
2013-04-01 18:22:00,76.8,59.9,29.99,NE,34,0.0,-999.0,56,0.00,,,0.01,WeatherSnoop3.0,2013-04-01 23:22:00,
2013-04-01 18:27:00,76.6,60.2,29.99,North,5,0.0,-999.0,57,0.00,,,0.01,WeatherSnoop3.0,2013-04-01 23:27:00,
2013-04-01 18:32:00,76.2,61.8,29.99,NNE,14,0.0,-999.0,61,0.00,,,0.01,WeatherSnoop3.0,2013-04-01 23:32:00,
2013-04-01 18:37:00,76.1,61.7,29.99,NE,55,0.0,-999.0,61,0.00,,,0.01,WeatherSnoop3.0,2013-04-01 23:37:00,
2013-04-01 18:42:00,75.8,61.4,29.99,NE,44,0.0,-999.0,61,0.00,,,0.01,WeatherSnoop3.0,2013-04-01 23:42:00,
2013-04-01 18:47:00,75.3,61.4,29.99,ENE,69,0.0,-999.0,62,0.00,,,0.01,WeatherSnoop3.0,2013-04-01 23:47:00,
2013-04-01 18:52:00,74.7,60.8,29.99,ENE,60,0.0,-999.0,62,0.00,,,0.01,WeatherSnoop3.0,2013-04-01 23:52:00,
2013-04-01 18:58:00,74.2,60.8,30.00,ENE,64,0.0,-999.0,63,0.00,,,0.01,WeatherSnoop3.0,2013-04-01 23:58:00,
2013-04-01 19:03:00,73.6,60.7,30.00,ENE,68,0.0,-999.0,64,0.00,,,0.01,WeatherSnoop3.0,2013-04-02 00:03:00,
2013-04-01 19:08:00,73.1,60.6,30.00,NE,46,0.0,-999.0,65,0.00,,,0.01,WeatherSnoop3.0,2013-04-02 00:08:00,
2013-04-01 19:13:00,72.6,60.6,30.00,ENE,69,0.0,-999.0,66,0.00,,,0.01,WeatherSnoop3.0,2013-04-02 00:13:00,
2013-04-01 19:18:00,72.1,60.5,30.00,NE,47,0.0,-999.0,67,0.00,,,0.01,WeatherSnoop3.0,2013-04-02 00:18:00,
2013-04-01 19:23:00,71.6,60.0,30.00,NE,39,0.0,-999.0,67,0.00,,,0.01,WeatherSnoop3.0,2013-04-02 00:23:00,
2013-04-01 19:28:00,71.0,59.5,30.00,NE,48,0.0,-999.0,67,0.00,,,0.01,WeatherSnoop3.0,2013-04-02 00:28:00,
2013-04-01 19:33:00,70.4,59.3,30.00,NE,51,0.0,-999.0,68,0.00,,,0.01,WeatherSnoop3.0,2013-04-02 00:33:00,
2013-04-01 19:38:00,70.0,59.4,30.00,NE,53,0.0,-999.0,69,0.00,,,0.01,WeatherSnoop3.0,2013-04-02 00:38:00,
2013-04-01 19:43:00,69.5,58.9,30.00,NE,53,0.0,-999.0,69,0.00,,,0.01,WeatherSnoop3.0,2013-04-02 00:43:00,
2013-04-01 19:48:00,69.0,58.8,30.00,NE,46,0.0,-999.0,70,0.00,,,0.01,WeatherSnoop3.0,2013-04-02 00:48:00,
2013-04-01 19:53:00,68.5,58.3,30.00,NE,49,0.0,-999.0,70,0.00,,,0.01,WeatherSnoop3.0,2013-04-02 00:53:00,
2013-04-01 19:58:00,68.1,57.9,30.01,NE,49,0.0,-999.0,70,0.00,,,0.01,WeatherSnoop3.0,2013-04-02 00:58:00,
2013-04-01 20:03:00,67.6,57.9,30.01,NE,49,0.0,-999.0,71,0.00,,,0.01,WeatherSnoop3.0,2013-04-02 01:03:00,
2013-04-01 20:08:00,67.2,57.5,30.01,NE,50,0.0,-999.0,71,0.00,,,0.01,WeatherSnoop3.0,2013-04-02 01:08:00,
2013-04-01 20:13:00,66.8,57.1,30.01,NE,50,0.0,-999.0,71,0.00,,,0.01,WeatherSnoop3.0,2013-04-02 01:13:00,
2013-04-01 20:18:00,66.3,57.0,30.01,NE,49,0.0,-999.0,72,0.00,,,0.01,WeatherSnoop3.0,2013-04-02 01:18:00,
2013-04-01 20:23:00,65.8,56.5,30.01,NE,49,0.0,-999.0,72,0.00,,,0.01,WeatherSnoop3.0,2013-04-02 01:23:00,
2013-04-01 20:28:00,65.4,56.5,30.01,NE,49,0.0,-999.0,73,0.00,,,0.01,WeatherSnoop3.0,2013-04-02 01:28:00,
2013-04-01 20:33:00,65.0,56.5,30.01,NE,49,0.0,-999.0,74,0.00,,,0.01,WeatherSnoop3.0,2013-04-02 01:33:00,
2013-04-01 20:38:00,64.6,56.5,30.01,NE,49,0.0,-999.0,75,0.00,,,0.01,WeatherSnoop3.0,2013-04-02 01:38:00,
2013-04-01 20:43:00,64.1,56.0,30.01,NE,50,0.0,-999.0,75,0.00,,,0.01,WeatherSnoop3.0,2013-04-02 01:43:00,
2013-04-01 20:48:00,63.8,56.1,30.01,NE,49,0.0,-999.0,76,0.00,,,0.01,WeatherSnoop3.0,2013-04-02 01:48:00,
2013-04-01 20:53:00,63.3,56.0,30.01,NE,49,0.0,-999.0,77,0.00,,,0.01,WeatherSnoop3.0,2013-04-02 01:53:00,
2013-04-01 20:58:00,62.9,55.9,30.02,NE,49,0.0,-999.0,78,0.00,,,0.01,WeatherSnoop3.0,2013-04-02 01:58:00,
2013-04-01 21:03:00,62.7,56.4,30.02,NE,49,0.0,-999.0,80,0.00,,,0.01,WeatherSnoop3.0,2013-04-02 02:03:00,
2013-04-01 21:08:00,62.3,56.4,30.02,NE,49,0.0,-999.0,81,0.00,,,0.01,WeatherSnoop3.0,2013-04-02 02:08:00,
2013-04-01 21:13:00,62.0,56.4,30.02,NE,49,0.0,-999.0,82,0.00,,,0.01,WeatherSnoop3.0,2013-04-02 02:13:00,
2013-04-01 21:18:00,61.7,56.5,30.02,NE,50,0.0,-999.0,83,0.00,,,0.01,WeatherSnoop3.0,2013-04-02 02:18:00,
2013-04-01 21:23:00,61.4,56.2,30.03,NE,50,0.0,-999.0,83,0.00,,,0.01,WeatherSnoop3.0,2013-04-02 02:23:00,
2013-04-01 21:28:00,61.2,56.0,30.03,NE,50,0.0,-999.0,83,0.00,,,0.01,WeatherSnoop3.0,2013-04-02 02:28:00,
2013-04-01 21:33:00,60.9,55.4,30.03,NE,49,0.0,-999.0,82,0.00,,,0.01,WeatherSnoop3.0,2013-04-02 02:33:00,
2013-04-01 21:38:00,60.7,55.5,30.03,NE,49,0.0,-999.0,83,0.00,,,0.01,WeatherSnoop3.0,2013-04-02 02:38:00,
2013-04-01 21:43:00,60.4,55.2,30.03,NE,49,0.0,-999.0,83,0.00,,,0.01,WeatherSnoop3.0,2013-04-02 02:43:00,
2013-04-01 21:48:00,60.2,54.7,30.04,NE,49,0.0,-999.0,82,0.00,,,0.01,WeatherSnoop3.0,2013-04-02 02:48:00,
2013-04-01 21:53:00,60.0,54.5,30.04,NE,49,0.0,-999.0,82,0.00,,,0.01,WeatherSnoop3.0,2013-04-02 02:53:00,
2013-04-01 21:58:00,59.8,54.6,30.04,NE,49,0.0,-999.0,83,0.00,,,0.01,WeatherSnoop3.0,2013-04-02 02:58:00,
2013-04-01 22:03:00,59.7,54.5,30.04,NE,50,0.0,-999.0,83,0.00,,,0.01,WeatherSnoop3.0,2013-04-02 03:03:00,
2013-04-01 22:08:00,59.5,54.3,30.04,NE,50,0.0,-999.0,83,0.00,,,0.01,WeatherSnoop3.0,2013-04-02 03:08:00,
2013-04-01 22:13:00,59.4,54.2,30.05,NE,49,0.0,-999.0,83,0.00,,,0.01,WeatherSnoop3.0,2013-04-02 03:13:00,
2013-04-01 22:18:00,59.3,54.5,30.05,NE,49,0.0,-999.0,84,0.00,,,0.01,WeatherSnoop3.0,2013-04-02 03:18:00,
2013-04-01 22:23:00,59.2,54.7,30.05,NE,50,0.0,-999.0,85,0.00,,,0.01,WeatherSnoop3.0,2013-04-02 03:23:00,
2013-04-01 22:28:00,59.1,54.6,30.05,NE,49,0.0,-999.0,85,0.00,,,0.01,WeatherSnoop3.0,2013-04-02 03:28:00,
2013-04-01 22:33:00,59.0,54.8,30.05,NE,50,0.0,-999.0,86,0.00,,,0.01,WeatherSnoop3.0,2013-04-02 03:33:00,
2013-04-01 22:38:00,58.9,54.7,30.05,NE,49,0.0,-999.0,86,0.00,,,0.01,WeatherSnoop3.0,2013-04-02 03:38:00,
2013-04-01 22:43:00,58.7,54.5,30.05,NE,49,0.0,-999.0,86,0.00,,,0.01,WeatherSnoop3.0,2013-04-02 03:43:00,
2013-04-01 22:48:00,58.6,54.4,30.05,NE,50,0.0,-999.0,86,0.00,,,0.01,WeatherSnoop3.0,2013-04-02 03:48:00,
2013-04-01 22:53:00,58.6,54.7,30.05,NE,49,0.0,-999.0,87,0.00,,,0.01,WeatherSnoop3.0,2013-04-02 03:53:00,
2013-04-01 22:58:00,58.5,55.0,30.05,NE,49,0.0,-999.0,88,0.00,,,0.01,WeatherSnoop3.0,2013-04-02 03:58:00,
2013-04-01 23:00:00,58.5,55.0,30.05,NE,49,0.0,-999.0,88,0.00,,,0.01,WeatherSnoop3.0,2013-04-02 04:00:00,
2013-04-01 23:05:00,58.4,55.2,30.05,NE,49,0.0,-999.0,89,0.00,,,0.01,WeatherSnoop3.0,2013-04-02 04:05:00,
2013-04-01 23:10:00,58.3,55.1,30.05,NE,49,0.0,-999.0,89,0.00,,,0.01,WeatherSnoop3.0,2013-04-02 04:10:00,
2013-04-01 23:15:00,58.2,55.3,30.05,NE,49,0.0,-999.0,90,0.00,,,0.01,WeatherSnoop3.0,2013-04-02 04:15:00,
2013-04-01 23:20:00,58.1,54.9,30.05,NE,49,0.0,-999.0,89,0.00,,,0.01,WeatherSnoop3.0,2013-04-02 04:20:00,
2013-04-01 23:25:00,57.9,54.7,30.05,NE,49,0.0,-999.0,89,0.00,,,0.01,WeatherSnoop3.0,2013-04-02 04:25:00,
2013-04-01 23:30:00,57.7,54.8,30.05,NE,49,0.0,-999.0,90,0.00,,,0.01,WeatherSnoop3.0,2013-04-02 04:30:00,
2013-04-01 23:35:00,57.5,54.6,30.05,NE,49,0.0,-999.0,90,0.00,,,0.01,WeatherSnoop3.0,2013-04-02 04:35:00,
2013-04-01 23:40:00,57.4,54.8,30.05,NE,50,0.0,-999.0,91,0.00,,,0.01,WeatherSnoop3.0,2013-04-02 04:40:00,
2013-04-01 23:45:00,57.3,54.7,30.06,NE,49,0.0,-999.0,91,0.00,,,0.01,WeatherSnoop3.0,2013-04-02 04:45:00,
2013-04-01 23:50:00,57.1,54.5,30.06,NE,50,0.0,-999.0,91,0.00,,,0.01,WeatherSnoop3.0,2013-04-02 04:50:00,
2013-04-01 23:55:00,56.9,54.3,30.05,NE,50,0.0,-999.0,91,0.00,,,0.01,WeatherSnoop3.0,2013-04-02 04:55:00,